Regional Weather Roundup
Issued by NWS

Home | Current Version | Previous Version | Graphics & Text | Print | Product List | Glossary On
Versions: 1 2 3 4 5 6 7 8 9 10 11 12 13 14 15 16 17 18 19 20 21 22 23 24 25 26 27 28 29 30 31 32 33 34 35 36 37 38 39 40 41 42 43 44 45 46 47 48 49 50
000
ASUS43 KMKX 211611
RWRWI

WISCONSIN REGIONAL WEATHER ROUNDUP
NATIONAL WEATHER SERVICE MILWAUKEE/SULLIVAN WI
1100 AM CDT THU AUG 21 2014

NOTE: "FAIR" INDICATES FEW OR NO CLOUDS BELOW 12,000 FEET WITH NO
SIGNIFICANT WEATHER AND/OR OBSTRUCTIONS TO VISIBILITY.

WIZ001-002-006>008-014>016-023>028-211700-
NORTHWEST WISCONSIN

CITY           SKY/WX    TMP DP  RH WIND       PRES   REMARKS
SUPERIOR ARPT  CLOUDY    61  60  97 E12G17    29.88R
ASHLAND        CLOUDY    68  63  84 NE6       29.92R
HAYWARD        CLOUDY    66  65  96 VRB7      29.87F
SIREN          CLOUDY    71  67  88 SE7       29.83S
RICE LAKE      CLOUDY    70  67  89 SE10      29.87R
LADYSMITH      LGT RAIN  67  65  96 E7        29.90F
EAU CLAIRE     CLOUDY    70  68  93 E13       29.86R
MENOMONIE      PTSUNNY   70  69  98 E12       29.86R
NEW RICHMOND   CLOUDY    72  69  89 E10       29.83R
OSCEOLA        CLOUDY    74  70  88 SE12G18   29.84S
$$

WIZ003>005-009-010-017-018-211700-
NORTH CENTRAL WISCONSIN

CITY           SKY/WX    TMP DP  RH WIND       PRES   REMARKS
WOODRUFF       CLOUDY    69  64  84 SE9       29.95S
RHINELANDER    CLOUDY    65  62  90 SE6       29.97S
EAGLE RIVER    CLOUDY    68  61  77 SE7       29.94F
LAND O LAKES   PTSUNNY   69  61  77 E7        29.95F
PHILLIPS       LGT RAIN  63  62  96 SE5       29.92F
TOMAHAWK       CLOUDY    64  63  97 SE3       29.96S FOG
MEDFORD        LGT RAIN  63  63  99 E5        29.94S
MERRILL        DRIZZLE   65  65  99 SE7       29.96S
$$

WIZ029-030-035-036-043>047-211700-
CENTRAL WISCONSIN

CITY           SKY/WX    TMP DP  RH WIND       PRES   REMARKS
WAUSAU         LGT RAIN  64  63  96 SE8       29.96R FOG
MOSINEE        RAIN      63  63 100 CALM      29.99R VSB 1
MARSHFIELD     LGT RAIN  67  65  93 SE9       29.93F
STEVENS POINT  RAIN      64  63  98 CALM      29.98R
WAUPACA        RAIN      69  66  90 E3        29.96R
WAUTOMA        HVY RAIN  66  66 100 CALM      29.99R VSB 1/2
WISC RAPIDS    LGT RAIN  66  65  96 E6        29.97F
CAMP DOUGLAS   LGT RAIN  68  68 100 E10       29.92F FOG
$$

WIZ011>013-019>022-031-037>040-048>050-211700-
NORTHEAST WISCONSIN

CITY           SKY/WX    TMP DP  RH WIND       PRES   REMARKS
ANTIGO         CLOUDY    64  63  95 SE8       29.98R FOG
STURGEON BAY   CLOUDY    66  61  82 SE10      29.99S
GREEN BAY      CLOUDY    70  63  78 SE8       29.97R
MANITOWOC      CLOUDY    68  64  87 E8        29.97F
APPLETON       CLOUDY    70  63  78 E9        29.96S
CLINTONVILLE   LGT RAIN  68  63  83 SE3       29.97R
OSHKOSH        LGT RAIN  70  67  90 SE6       29.94S
$$

WIZ032>034-041-042-053>061-211700-
SOUTHWEST WISCONSIN

CITY           SKY/WX    TMP DP  RH WIND       PRES   REMARKS
LA CROSSE      CLOUDY    72  68  87 SE7       29.81F
SPARTA         LGT RAIN  69  67  93 SE7       29.86F
VIROQUA        CLOUDY    68  68 100 SE12      29.87F
BOSCOBEL       LGT RAIN  71  69  93 E3        29.95S
PRAIRIE DU CHI LGT RAIN  71  69  90 CALM      29.92S
PLATTEVILLE    PTSUNNY   72  70  95 SE6       29.94F
$$

WIZ056-057-062-063-064-067-068-211700-
SOUTH CENTRAL WISCONSIN

CITY           SKY/WX    TMP DP  RH WIND       PRES   REMARKS
BARABOO/DELLS  RAIN      68  66  92 CALM      29.96R
LONE ROCK      LGT RAIN  74  69  85 CALM      29.95F
WATERTOWN      CLOUDY    70  69  98 CALM      29.93S
MADISON        TSTM      72  68  87 S7        29.93R
MIDDLETON      CLOUDY    71  71  99 NW9       29.98R
MONROE         CLOUDY    70  68  94 S12       29.92F
JANESVILLE     PTSUNNY   72  70  94 CALM      29.94S
$$

WIZ051-052-058>065-066-070>072-211700-
SOUTHEAST WISCONSIN

CITY           SKY/WX    TMP DP  RH WIND       PRES   REMARKS
MILWAUKEE      LGT RAIN  71  67  87 CALM      29.94F
WAUKESHA       LGT RAIN  70  66  88 E5        29.95S
MILWAUKEE/TIMM MOSUNNY   72  64  78 CALM      29.95S
RACINE         LGT RAIN  73  68  84 E5        29.96S
BURLINGTON     LGT RAIN  72  69  92 CALM      29.94F
KENOSHA        CLOUDY    76  70  82 SW5       29.95R
FOND DU LAC    LGT RAIN  70  66  87 SE7       29.95R
SHEBOYGAN      CLOUDY    69  62  78 SE7       29.96F
WEST BEND      LGT RAIN  68  64  88 E3        29.96S
JUNEAU         CLOUDY    70  42  37 N7        29.95F
$$

LSZ147-162-211700-
LAKE SUPERIOR

STATION/POSITION TIME  TEMP    WIND        PRES    WAVE
                       AIR SEA DIR/SP/G            HT/PER
                 (UTC) (F)     (DEG/KT/KT) (MB)    (FT/S)
W MID LAKE BUOY  1550   58 58   90/  8/ 10 1014.3F   1
PORT WING        1500   64      40/ 14/ 16 1011.9
SAXON HARBOR     1540   67      40/  8/ 10 1012.5F
$$

LMZ867-665-643>646-211700-
LAKE MICHIGAN

STATION/POSITION TIME  TEMP    WIND        PRES    WAVE
                       AIR SEA DIR/SP/G            HT/PER
                 (UTC) (F)     (DEG/KT/KT) (MB)    (FT/S)
N MID LAKE BUOY  1550   64 64  110/  8/ 10 1014.6F   0
NORTHPORT PIER   1500   65     140/  8/  8 1014.9F
SISTER BAY       1526   72     270/  9/ 11   N/A
ALGOMA LAKESHORE 1353             CALM       N/A
KEWAUNEE LAKESHO 1500   65     110/  5/  7 1014.3F
SHEBOYGAN LAKESH 1600   66 64  110/  5/  6 1014.6F
ATWATER BUOY     1500   68     100/  6/  8 1015.4S
MILWAUKEE LAKESH 1500   68      90/  6/  7   N/A
S MID LAKE BUOY  1550   70 69  120/  6/  6 1013.7F   0
KENOSHA   LAKESH 1600   72     140/  7/  8 1013.9R
$$

TC  - TEMPERATURE IN CELSIUS
VSB - VISIBILITY IN STATUTE MILES
WCI - WIND CHILL INDEX
HX  - HEAT INDEX




USA.gov is the U.S. government's official web portal to all federal, state and local government web resources and services.